Weather in Naval

Philippines     11°35′48″N   124°23′41″E
temp.,
°C
wind,
m/s
gust,
m/s
humid.,
%
clouds,
%
prec.,
mm/h
press.,
hPa
HPBL,
m
15 may, sat
sat1523:00+25e369010 0.0 1010320
02:00+25e359216 0.0 1009259
05:00+24e359367 0.1 1009284
08:00+27e368095 0.2 1010675
11:00+29e357170 0.9 1010954
14:00+30e356993 1.8 1008933
17:00+28e4677100 0.1 1008663
20:00+25e3587100 0.2 1010315
16 may, sun
sun1623:00+25e359094 0.1 1010299
02:00+25e3591100 0.3 1009293
05:00+25e359278 0.3 1009269
08:00+27e368173 0.7 1011640
11:00+29e467399 0.8 1010917
14:00+28e4573100 0.9 1008730
17:00+26e368195 0.3 1008475
20:00+25e359085 0.4 1010294
17 may, mon
mon1723:00+25ene349093 0.1 1010249
02:00+25ene249097 0.1 1008248
05:00+25e3491100 0.1 1009239
08:00+27ene3579100 0.4 1010633
11:00+31ene2562100 0.1 10091110
14:00+31ene355779 0.2 10071236
17:00+29ene357242 0.4 1007491
20:00+26ene3589100 0.8 1009277
18 may, tue
tue1823:00+25ene2491100 0.4 1009231
02:00+25ene3589100 1.9 1008267
05:00+25e4790100 0.3 1008390
08:00+25e3586100 0.4 1010323
11:00+28e3677100 0.2 1009731
14:00+25ene2491100 1.8 1007251
17:00+25ene2490100 0.8 1008264
20:00+25ene3591100 0.9 1009274
19 may, wed
wed1923:00+25ene3591100 0.0 1009275
02:00+25ene3492100 0.3 1008273
05:00+24ene359399 0.4 1008283
08:00+27ene3583100 1.1 1010596
11:00+29e357499 1.4 1009821
14:00+29ese4572100 2.8 1007847
17:00+26e3581100 0.5 1008425
20:00+24e249297 1.0 1010173